www.pogodaiklimat.ru

Погода и климат >> Архив погоды >> Корея >> База Camp Humphreys


ПОГОДА на Базе Camp Humphreys

  • Прогноз погоды на Базе Camp Humphreys
  • Монитор погоды на Базе Camp Humphreys

АРХИВ ПОГОДЫ на Базе Camp Humphreys

Время (UTC), дата Ветер
(напр.,м/с)
 
Видим.   Явления Облачность Т
(С)
Тd
(С)
f
(%)
Тe
(С)
Тes
(С)
Комфортность P
(гПа)
Po
(гПа)
Тmin
(С)
Tmax
(С)
R
(мм)
R24
(мм)
S
(см)
03 12.08 В 4 19 км 8/3 1000 м
[]
+31.1 +23.4 64 +42 +48 опасность
перегрева
1000.9 988.2
06 12.08 В 3 20 км 9/9 1000 м
[]
+31.2 +23.8 65 +43 +43 опасность
перегрева
1000.4 987.7
09 12.08 20 км н/о +30.6 +23.2 65 +41 +41 опасность
перегрева
1000.5 987.8
12 12.08 В 3 20 км 9/0 2000 м
[]
+29.2 +23.3 71 +40 +40 очень
душно
1002.0 989.3 +32.8 0.0
15 12.08 В 1 20 км 3/0
[]
+27.8 +22.9 75 +37 +37 очень
душно
1002.5 989.7
18 12.08 В 2 20 км 3/0
[]
+26.6 +22.4 78 +35 +35 очень
душно
1002.4 989.5
21 12.08 штиль 0 20 км 4/0
[]
+25.1 +22.3 84 +33 +33 очень
душно
1003.1 990.1
00 13.08 В 5 20 км 5/5 1500 м
[]
+29.9 +23.0 67 +40 +42 очень
душно
1003.5 990.7 +24.2 0.0
03 13.08 19 км н/о +32.0 +23.2 60 +43 +49 опасность
перегрева
1002.8 990.2
06 13.08 В 2 20 км 6/6 1000 м
[]
+34.0 +24.2 57 +46 +51 опасность
перегрева
1001.5 989.0
09 13.08 Ю 1 20 км 6/0
[]
+34.1 +23.4 54 +45 +46 опасность
перегрева
1000.8 988.3
12 13.08 В 2 20 км 3/0 2000 м
[]
+28.7 +23.8 75 +40 +40 очень
душно
1002.8 990.1 +34.7
15 13.08 ЮВ 1 20 км 3/0
[]
+29.0 +21.2 63 +37 +37 очень
душно
1003.1 990.4
18 13.08 В 2 20 км 6/0
[]
+25.2 +22.2 83 +33 +33 очень
душно
1002.5 989.6
21 13.08 штиль 0 19 км 3/0
[]
+23.2 +21.6 91 +31 +31 очень
душно
1002.3 989.3
00 14.08 В 1 20 км 4/0
[]
+29.7 +21.8 63 +38 +46 очень
душно
1001.8 989.1 +23.2
03 14.08 В 4 19 км 5/0
[]
+33.3 +23.0 55 +44 +53 опасность
перегрева
999.9 987.3
06 14.08 В 3 19 км 6/6 1000 м
[]
+34.3 +24.2 56 +47 +51 опасность
перегрева
998.5 986.0
09 14.08 20 км н/о +31.5 +23.3 62 +42 +43 опасность
перегрева
997.8 985.2
12 14.08 В 1 20 км 8/8 1500 м
[]
+29.2 +22.1 66 +38 +38 очень
душно
998.5 985.8 +34.6
15 14.08 СВ 1 20 км 10/3 1000 м
[]
+28.0 +21.2 67 +35 +35 очень
душно
997.0 984.3
18 14.08 штиль 0 15 км ?/? +23.7 +22.1 91 +31 +31 очень
душно
996.1 983.3 0.9
21 14.08 штиль 0 13 км 10// 300 м
[]
+23.4 +22.5 95 +32 +32 очень
душно
995.2 982.3
00 15.08 СЗ 2 20 км 9/9 200 м
[]
+25.2 +23.0 88 +34 +34 очень
душно
994.0 981.2 +23.2 3
03 15.08 З 2 20 км 10// 300 м
[]
+26.9 +23.1 80 +36 +45 очень
душно
992.1 979.4
06 15.08 С 3 20 км ?/? +27.1 +23.5 81 +37 +37 очень
душно
990.5 977.8
09 15.08 З 2 11 км 10// 200 м
[]
+24.2 +22.9 92 +32 +33 очень
душно
989.9 977.2
12 15.08 З 4 11 км 6/6 300 м
[]
+23.2 +22.1 94 +32 +32 очень
душно
990.7 977.9 +28.0 1
15 15.08 З 1 5000 м ясно +23.1 +22.5 96 +32 +32 очень
душно
991.4 978.6
18 15.08 З 1 16 км 6/6 100 м
[]
+23.2 +22.8 98 +32 +32 очень
душно
992.0 979.2 6
21 15.08 10 км н/о +23.7 +23.1 96 +31 +31 очень
душно
993.6 980.8
00 16.08 З 2 20 км 9/9 300 м
[]
+24.7 +22.3 87 +32 +33 очень
душно
994.7 981.9 +22.8 6
03 16.08 ЮЗ 2 14 км 9// 300 м
[]
+27.1 +23.1 79 +36 +46 очень
душно
994.7 982.0
06 16.08 ЮЗ 3 16 км 8/8 1000 м
[]
+28.3 +23.6 76 +39 +41 очень
душно
994.9 982.2 0.1
09 16.08 З 4 18 км 3/3 600 м
[]
+28.3 +20.5 63 +35 +36 очень
душно
996.7 984.0
12 16.08 штиль 0 15 км 1/1 600 м
[]
+23.5 +20.8 85 +29 +29 душно 999.0 986.1 +29.6 0.1
15 16.08 14 км н/о +23.2 +20.9 87 +31 +31 очень
душно
1000.5 987.6
18 16.08 ЮЗ 2 14 км 8/8 600 м
[]
+23.5 +20.4 83 +29 +29 душно 1000.9 988.0
21 16.08 13 км н/о +23.6 +20.7 84 +29 +29 душно 1001.4 988.5
00 17.08 ЮЗ 4 17 км 3/3 600 м
[]
+26.2 +20.5 71 +33 +36 очень
душно
1002.2 989.3 +22.2 0.0
03 17.08 18 км н/о +29.0 +20.7 61 +36 +40 очень
душно
1001.3 988.6
06 17.08 ЮЗ 3 18 км 8/8 1000 м
[]
+29.3 +20.7 60 +36 +40 очень
душно
999.7 987.0
09 17.08 В 1 12 км 9// 300 м
[]
+23.3 +22.0 92 +32 +33 очень
душно
1001.3 988.4
12 17.08 В 1 3800 м 6/6 1000 м
[]
+22.0 +21.3 96 +29 +29 очень
душно
1003.6 990.5 +30.1 17
15 17.08 1900 м н/о +22.2 +21.8 98 +29 +29 очень
душно
1004.9 991.8
18 17.08 штиль 0 1900 м 6/6 200 м
[]
+21.6 +21.0 96 +27 +27 душно 1005.6 992.5
21 17.08 3200 м н/о +20.0 +19.5 97 +25 +25 комфорт 1006.8 993.5
00 18.08 З 1 7000 м 8/8 300 м
[]
+22.8 +20.1 85 +29 +31 очень
душно
1008.0 994.9 +19.7 0.0
03 18.08 18 км н/о +26.2 +19.0 65 +31 +40 очень
душно
1007.9 994.9
06 18.08 З 2 20 км ясно +28.5 +18.2 54 +33 +46 очень
душно
1006.5 993.7
09 18.08 В 1 19 км ясно +27.8 +19.0 59 +33 +35 очень
душно
1006.1 993.3
12 18.08 ЮВ 2 17 км 1/0
[]
+21.7 +19.0 85 +27 +27 душно 1007.9 994.8 +29.0
15 18.08 В 1 10 км ясно +20.0 +18.8 93 +24 +24 комфорт 1009.3 996.0
18 18.08 В 1 10 км 6/6 200 м
[]
+19.7 +18.8 95 +24 +24 комфорт 1009.7 996.5
21 18.08 4500 м н/о +19.5 +19.1 98 +22 +22 комфорт 1010.4 997.2
00 19.08 ЮЗ 1 8000 м 8/0
[]
+22.8 +19.3 81 +29 +35 очень
душно
1010.3 997.2

 

Местоположение метеостанции База Camp Humphreys (Корея): широта 36.95 долгота 127.03 высота над уровнем моря 14 м.

В архиве по умолчанию представлена погода на Базе Camp Humphreys за последнюю неделю. Архивные данные за месяц целиком и за предыдущие месяцы, начиная с января 2011 года, Вы можете получить, выбрав интересующий диапазон дат из раскрывающегося списка и нажав кнопку "Ввод!".


*Определитесь, кто Вы:
робот инопланетянин человек

Внимание! Время в таблицах - всемирное. Для получения местного времени необходимо прибавить поправку, которая равна 9 ч.

Смотрите также архив погоды в соседних городах и на ближайших метеорологических станциях:

Погода в Чхонане (Корея) (22 км)
Погода в Сувоне (Корея) (36 км)
Погода в Хонсоне (Корея) (44 км)
Погода в Сосане (Корея) (51 км)
Погода в Чхонджу (Корея) (52 км)
Погода в Ичхоне (Корея) (53 км)
Погода в Инчхоне (Корея) (68 км)
Погода в Сеуле (Корея) (69 км)
Погода в Тэджоне (Корея) (71 км)
Погода в Порёне (Корея) (81 км)

Пояснения к столбцам:

Ветер - указаны скорость ветра в м/с - средняя за 10 мин, порывы в срок и между сроками (в фигурных скобках) и направление, откуда дует ветер: С - северный, СВ - северо-восточный, В - восточный, ЮВ - юго-восточный, Ю - южный, ЮЗ - юго-западный, З - западный, СЗ - северо-западный.
Видимость - горизонтальная дальность видимости в метрах или километрах. При видимости от 1 до 10 км при отсутствии осадков обычно наблюдается дымка, при ухудшении видимости до 1 км и менее - туман. В сухую погоду видимость может ухудшаться дымом, пылью или мглою.
Явления - указаны атмосферные явления, наблюдавшиеся в срок или в последний час перед сроком; фигурными скобками обозначены явления, наблюдавшиеся между сроками (за 1-3 часа до срока); квадратными скобками обозначены град или гололедные отложения с указанием их диаметра в мм.
Облачность - указаны через наклонную черту общая и нижняя облачность в баллах и высота нижней границы облаков в метрах; квадратными скобками обозначены формы облаков: Ci - перистые, Cs - перисто-слоистые, Cc - перисто-кучевые, Ac - высококучевые, As - высокослоистые, Sc - слоисто-кучевые, Ns - слоисто-дождевые, Cu - кучевые, Cb - кучево-дождевые. Подробнее классификацию облаков см. в Атласе облаков (PDF).
T - Температура воздуха - температура, измеренная на высоте 2 м над землей.
Td - Температура точки росы - температура, при понижении до которой содержащийся в воздухе водяной пар достигнет насыщения.
f - Относительная влажность воздуха - влажноcть воздуха, измеренная на высоте 2 м над землей.
Te - Эффективная температура - температура, которую ощущает одетый по сезону человек в тени. Характеристика душности погоды. При расчете учитывается влияние влажности воздуха и скорости ветра на теплоощущения человека.
Tes - Эффективная температура на солнце - температура, которую ощущает человек, с поправкой на солнечный нагрев. Характеристика знойности погоды. Зависит от высоты солнца над горизонтом, облачности и скорости ветра. Ночью, в пасмурную погоду, а также при ветре 12 м/с и более поправка равна нулю.
P - Атмосферное давление - приведенное к уровню моря атмосферное давление.
Po - Атмосферное давление - измеренное на уровне метеостанции атмосферное давление.
Tmin - Минимальная температура - минимум температуры воздуха на высоте 2 м над землей.
Tmax - Максимальная температура - максимум температуры воздуха на высоте 2 м над землей.
R - Количество осадков - Количество выпавших осадков за период времени, мм. При наведении курсора мыши на число - период времени, за который выпало указанное количество осадков.
R24 - Количество осадков - Количество выпавших осадков за 24 часа, мм.
S - Снежный покров - Высота снежного покрова, см. При наведении курсора мыши на число - состояние снежного покрова и степень покрытия местности в баллах.